Voltar ao catálogo

STARLINK-4328

AtivoComunicaçõesSSO
NORAD 53071·PAYLOAD·🇺🇸 United States

Lançado Jul 11, 2022 de Vandenberg Space Force Base

Loading…

Próximas Passagens (próximas 24 horas)

TLE

AtualizadoSource: CelesTrak SupGP

Época: Sep 14, 2026, 20:58 UTC

1 53071C 22077AE  26257.87409722  .00065413  00000+0  20312-2 0  2570
2 53071  97.2854  73.7071 0001710  93.7944 229.4600 15.33395499    18

Acompanhe STARLINK-4328 em tempo real com AllMySat

Download on the App Store